Weather History for Don Muang, Thailand

Change the Weather History Date:

Saturday, September 7, 2013

  Actual Average Record
Temperature  
Mean Temperature 84 °F -  
Max Temperature 90 °F 90 °F - ()
Min Temperature 78 °F 76 °F - ()
Cooling Degree Days 19    
Growing Degree Days 34 (Base 50)    
Moisture  
Dew Point 76 °F    
Average Humidity 81    
Maximum Humidity 94    
Minimum Humidity 59    
Precipitation  
Precipitation 0.24 in 0.32 in - ()
Sea Level Pressure  
Sea Level Pressure 29.81 in    
Wind  
Wind Speed 4 mph ()    
Max Wind Speed 20 mph    
Max Gust Speed -    
Visibility 5.9 miles    
Events Rain , Thunderstorm    
T = Trace of Precipitation, MM = Missing Value Source: Averaged Metar Reports

Daily Weather History Graph

Daily Weather History Graph

Search for Another Location

Airport:

Trip Planner

Search our weather history database for the weather conditions in past years. The results will help you decide how hot, cold, wet, or windy it might be!

Date:

Astronomy

Sep. 07, 2013 Rise Set
Actual Time 6:06 AM ICT 6:24 PM ICT
Civil Twilight 5:44 AM ICT 6:46 PM ICT
Nautical Twilight 5:19 AM ICT 7:11 PM ICT
Astronomical Twilight 4:54 AM ICT 7:36 PM ICT
Moon 7:22 AM ICT (9/7) 7:34 PM ICT (9/7)
Length of Visible Light 13h 01m
Length of Day
12h 18m
Waxing Crescent, 3% of the Moon is Illuminated
Sep 7
Waxing Crescent
Sep 13
First Quarter
Sep 19
Full
Sep 27
Last Quarter
Oct 5
New

Hourly Weather History & Observations

Time (ICT) Temp. Heat Index Dew Point Humidity Pressure Visibility Wind Dir Wind Speed Gust Speed Precip Events Conditions
12:00 AM 84.2 °F 94.1 °F 77.0 °F 79% 29.86 in 6.2 mi West 6.9 mph - N/A   Mostly Cloudy
12:30 AM 84.2 °F 94.1 °F 77.0 °F 79% 29.86 in 6.2 mi NNW 3.5 mph - N/A   Mostly Cloudy
1:00 AM 83 °F - 76 °F 73% 29.85 in 6 mi NNE 3.5 mph - -   Scattered Clouds
1:00 AM 82.4 °F 89.5 °F 75.2 °F 79% 29.83 in 6.2 mi NNE 3.5 mph - N/A   Mostly Cloudy
1:30 AM 82.4 °F 89.5 °F 75.2 °F 79% 29.83 in 6.2 mi ENE 3.5 mph - N/A   Mostly Cloudy
2:00 AM 82.4 °F 89.5 °F 75.2 °F 79% 29.80 in 6.2 mi NE 3.5 mph - N/A   Mostly Cloudy
2:30 AM 80.6 °F 86.2 °F 75.2 °F 84% 29.80 in 6.2 mi East 3.5 mph - N/A   Mostly Cloudy
3:00 AM 80.6 °F 86.2 °F 75.2 °F 84% 29.77 in 6.2 mi East 3.5 mph - N/A   Mostly Cloudy
3:30 AM 80.6 °F 86.2 °F 75.2 °F 84% 29.80 in 6.2 mi Calm Calm - N/A   Mostly Cloudy
4:00 AM 80.6 °F 86.2 °F 75.2 °F 84% 29.80 in 6.2 mi Calm Calm - N/A   Mostly Cloudy
4:30 AM 80.6 °F 86.2 °F 75.2 °F 84% 29.80 in 6.2 mi North 2.3 mph - N/A   Mostly Cloudy
5:00 AM 80.6 °F 86.2 °F 75.2 °F 84% 29.80 in 6.2 mi NNE 3.5 mph - N/A   Mostly Cloudy
6:00 AM 80.6 °F 86.2 °F 75.2 °F 84% 29.83 in 6.2 mi Calm Calm - N/A   Mostly Cloudy
6:30 AM 80.6 °F 86.2 °F 75.2 °F 84% 29.80 in 6.2 mi NNE 4.6 mph - N/A   Mostly Cloudy
7:00 AM 80.6 °F 86.2 °F 75.2 °F 84% 29.83 in 6.2 mi East 3.5 mph - N/A   Mostly Cloudy
7:30 AM 80.6 °F 86.2 °F 75.2 °F 84% 29.83 in 6.2 mi East 3.5 mph - N/A   Mostly Cloudy
8:00 AM 82.4 °F 89.5 °F 75.2 °F 79% 29.86 in 6.2 mi ENE 3.5 mph - N/A   Mostly Cloudy
8:30 AM 84.2 °F 94.1 °F 77.0 °F 79% 29.86 in 6.2 mi ENE 5.8 mph - N/A   Mostly Cloudy
9:00 AM 86.0 °F 96.9 °F 77.0 °F 74% 29.86 in 6.2 mi Calm Calm - N/A   Mostly Cloudy
9:30 AM 87.8 °F 99.7 °F 77.0 °F 70% 29.86 in 6.2 mi South 3.5 mph - N/A   Mostly Cloudy
10:00 AM 89.6 °F 102.2 °F 77.0 °F 66% 29.86 in 6.2 mi East 2.3 mph - N/A   Mostly Cloudy
10:30 AM 89.6 °F 102.2 °F 77.0 °F 66% 29.86 in 6.2 mi West 3.5 mph - N/A   Mostly Cloudy
11:00 AM 89.6 °F 102.2 °F 77.0 °F 66% 29.86 in 6.2 mi West 3.5 mph - N/A   Mostly Cloudy
11:30 AM 91.4 °F 102.5 °F 75.2 °F 59% 29.86 in 6.2 mi North 12.7 mph - N/A   Mostly Cloudy
12:00 PM 91.4 °F 102.5 °F 75.2 °F 59% 29.80 in 6.2 mi North 12.7 mph - N/A   Mostly Cloudy
12:30 PM 87.8 °F 99.7 °F 77.0 °F 70% 29.80 in 6.2 mi South 13.8 mph - N/A   Mostly Cloudy
1:00 PM 84.2 °F 89.6 °F 71.6 °F 66% 29.80 in 6.2 mi SW 19.6 mph - N/A   Mostly Cloudy
1:30 PM 80.6 °F 85.4 °F 73.4 °F 79% 29.80 in 3.7 mi SW 19.6 mph - N/A Rain , Thunderstorm Light Thunderstorms and Rain
2:00 PM 78.8 °F - 73.4 °F 83% 29.80 in 5.0 mi WNW 8.1 mph - N/A Rain , Thunderstorm Light Thunderstorms and Rain
2:30 PM 80.6 °F 85.4 °F 73.4 °F 79% 29.80 in 5.6 mi West 2.3 mph - N/A Rain Light Rain
3:00 PM 80.6 °F 86.2 °F 75.2 °F 84% 29.74 in 5.6 mi West 2.3 mph - N/A Rain Light Rain
3:30 PM 80.6 °F 86.2 °F 75.2 °F 84% 29.74 in 5.6 mi NE 5.8 mph - N/A Rain Light Rain
4:00 PM 80.6 °F 86.2 °F 75.2 °F 84% 29.74 in 5.6 mi South 5.8 mph - N/A Rain Light Rain
4:30 PM 78.8 °F - 75.2 °F 89% 29.74 in 5.6 mi SSE 3.5 mph - N/A Rain Light Rain
5:00 PM 78.8 °F - 75.2 °F 89% 29.74 in 5.6 mi South 2.3 mph - N/A Rain Light Rain
5:30 PM 78.8 °F - 75.2 °F 89% 29.74 in 6.2 mi South 2.3 mph - N/A   Mostly Cloudy
6:00 PM 78.8 °F - 75.2 °F 89% 29.77 in 6.2 mi Calm Calm - N/A   Mostly Cloudy
6:30 PM 78.8 °F - 75.2 °F 89% 29.77 in 6.2 mi South 3.5 mph - N/A   Mostly Cloudy
7:00 PM 80 °F - 76 °F 83% 29.81 in 6 mi South 3.5 mph - -   Partly Cloudy
7:00 PM 80.6 °F 86.2 °F 75.2 °F 84% 29.77 in 6.2 mi South 3.5 mph - N/A   Mostly Cloudy
7:30 PM 80.6 °F 86.2 °F 75.2 °F 84% 29.77 in 6.2 mi South 5.8 mph - N/A   Mostly Cloudy
8:00 PM 80.6 °F 86.2 °F 75.2 °F 84% 29.80 in 6.2 mi East 3.5 mph - N/A   Mostly Cloudy
8:30 PM 80.6 °F 86.2 °F 75.2 °F 84% 29.83 in 6.2 mi South 3.5 mph - N/A   Mostly Cloudy
9:00 PM 80.6 °F 86.2 °F 75.2 °F 84% 29.86 in 5.6 mi ESE 3.5 mph - N/A   Mostly Cloudy
9:30 PM 80.6 °F 86.2 °F 75.2 °F 84% 29.86 in 5.6 mi SE 2.3 mph - N/A   Mostly Cloudy
10:00 PM 80.6 °F 87.1 °F 77.0 °F 89% 29.86 in 5.0 mi ENE 3.5 mph - N/A   Mostly Cloudy
10:30 PM 78.8 °F - 77.0 °F 94% 29.89 in 5.0 mi ENE 3.5 mph - N/A   Mostly Cloudy
11:00 PM 78.8 °F - 77.0 °F 94% 29.86 in 5.0 mi NE 3.5 mph - N/A   Mostly Cloudy
11:30 PM 78.8 °F - 77.0 °F 94% 29.86 in 5.0 mi ENE 2.3 mph - N/A   Mostly Cloudy